Weather History for Sisseton, SD

Change the Weather History Date:

Saturday, October 23, 2010

  Actual Average Record
Temperature  
Mean Temperature 47 °F 43 °F  
Max Temperature 52 °F 54 °F 82 °F (1963)
Min Temperature 42 °F 33 °F 10 °F (1936)
Degree Days  
Heating Degree Days 18 22  
Month to date heating degree days 271 391  
Since 1 July heating degree days 507 636  
Cooling Degree Days 0 0  
Month to date cooling degree days 7 0  
Year to date cooling degree days 594 523  
Moisture  
Dew Point 44 °F    
Average Humidity 86    
Maximum Humidity 100    
Minimum Humidity 71    
Precipitation  
Precipitation 0.25 in 0.06 in 1.10 in (1995)
Month to date precipitation 0.38 1.72  
Year to date precipitation 22.14 21.00  
Snow  
Snow 0.00 in - - ()
Month to date snowfall 0.0  
Since 1 July snowfall 0.0  
Snow Depth 0.00 in    
Sea Level Pressure  
Sea Level Pressure 29.79 in    
Wind  
Wind Speed 7 mph (NNE)    
Max Wind Speed 14 mph    
Max Gust Speed 16 mph    
T = Trace of Precipitation, MM = Missing Value Source: NWS Daily Summary

Daily Weather History Graph

Daily Weather History Graph

Search for Another Location

Airport:

Trip Planner

Search our weather history database for the weather conditions in past years. The results will help you decide how hot, cold, wet, or windy it might be!

Date:

Astronomy

Oct. 23, 2010 Rise Set
Actual Time 7:55 AM CDT 6:28 PM CDT
Civil Twilight 7:24 AM CDT 6:58 PM CDT
Nautical Twilight 6:50 AM CDT 7:33 PM CDT
Astronomical Twilight 6:15 AM CDT 8:07 PM CDT
Moon 6:25 PM CDT (10/23) 8:42 AM CDT (10/23)
Length of Visible Light 11h 34m
Length of Day
10h 33m
Full, 100% of the Moon is Illuminated
Oct 23
Full
Oct 30
Last Quarter
Nov 5
New
Nov 13
First Quarter
Nov 21
Full

Hourly Weather History & Observations

Time (CDT) Temp. Windchill Dew Point Humidity Pressure Visibility Wind Dir Wind Speed Gust Speed Precip Events Conditions
12:56 AM 48.9 °F - 39.0 °F 69% 29.80 in - NNW 5.8 mph - N/A   Unknown
1:56 AM 48.0 °F - 39.0 °F 71% 29.78 in - NNW 9.2 mph - N/A   Unknown
2:56 AM 48.9 °F - 39.0 °F 69% 29.79 in - NNW 6.9 mph - N/A   Unknown
3:56 AM 48.9 °F - 39.0 °F 69% 29.76 in - North 10.4 mph - N/A   Unknown
4:56 AM 48.9 °F - 39.0 °F 69% 29.76 in - NNW 5.8 mph - N/A   Unknown
5:56 AM 46.9 °F - 41.0 °F 80% 29.76 in - North 9.2 mph - 0.01 in   Unknown
6:56 AM 44.1 °F 40.8 °F 41.0 °F 89% 29.80 in - NNW 5.8 mph - 0.01 in   Unknown
7:56 AM 43.0 °F 38.2 °F 41.0 °F 93% 29.80 in - North 8.1 mph - N/A   Unknown
8:56 AM 44.1 °F 39.5 °F 41.0 °F 89% 29.81 in - North 8.1 mph - N/A   Unknown
9:56 AM 46.9 °F - 43.0 °F 86% 29.82 in - NNW 4.6 mph - N/A   Unknown
10:56 AM 48.0 °F - 45.0 °F 89% 29.82 in - NNW 3.5 mph - N/A   Unknown
11:56 AM 48.9 °F - 46.9 °F 93% 29.80 in - North 3.5 mph - 0.01 in   Unknown
12:56 PM 52.0 °F - 48.0 °F 86% 29.78 in - ENE 3.5 mph - 0.01 in   Unknown
1:56 PM 51.1 °F - 48.0 °F 89% 29.77 in - ENE 6.9 mph - 0.02 in   Unknown
2:56 PM 52.0 °F - 50.0 °F 93% 29.77 in - SSE 5.8 mph - 0.03 in   Unknown
3:56 PM 50.0 °F - 48.9 °F 96% 29.77 in - East 11.5 mph - 0.10 in   Unknown
4:56 PM 51.1 °F - 48.9 °F 92% 29.78 in - ENE 5.8 mph - 0.06 in   Unknown
5:56 PM 48.9 °F - 48.0 °F 97% 29.79 in - East 6.9 mph - N/A   Unknown
6:56 PM 48.9 °F - 48.0 °F 97% 29.80 in - East 10.4 mph - N/A   Unknown
7:56 PM 48.9 °F - 46.9 °F 93% 29.81 in - ENE 5.8 mph - N/A   Unknown
8:56 PM 48.0 °F - 46.9 °F 96% 29.81 in - ENE 6.9 mph - N/A   Unknown
9:56 PM 48.0 °F - 46.9 °F 96% 29.79 in - East 8.1 mph - N/A   Unknown
10:56 PM 46.9 °F - 46.0 °F 97% 29.78 in - ENE 8.1 mph - N/A   Unknown
11:56 PM 46.9 °F - 46.0 °F 97% 29.77 in - ENE 8.1 mph - N/A   Unknown